H1 CPF 1 NER 2013 6 10 9 6611 glonass114 H2 0806703 9114 33468 2013 6 10 0 0 0 2013 6 13 23 45 0 900 1 1 0 0 0 H9 10 0 56453 0.00000 0 12086835.198 6012694.255 21647724.965 10 0 56453 900.00000 0 9641409.560 7206118.078 22495109.917 10 0 56453 1800.00000 0 7220816.787 8610313.112 22905894.468 10 0 56453 2700.00000 0 4887525.547 10196680.333 22872156.033 10 0 56453 3600.00000 0 2698215.679 11926034.944 22394587.765 10 0 56453 4500.00000 0 701631.535 13750099.319 21482482.217 10 0 56453 5400.00000 0 -1063222.303 15613392.491 20153550.202 10 0 56453 6300.00000 0 -2568469.119 17455438.302 18433578.261 10 0 56453 7200.00000 0 -3798275.501 19213200.786 16355931.104 10 0 56453 8100.00000 0 -4749257.289 20823645.873 13960908.200 10 0 56453 9000.00000 0 -5430360.308 22226322.961 11294966.347 10 0 56453 9900.00000 0 -5862221.913 23365858.799 8409822.779 10 0 56453 10800.00000 0 -6076041.111 24194259.526 5361455.616 10 0 56453 11700.00000 0 -6112005.553 24672924.388 2209020.638 10 0 56453 12600.00000 0 -6017342.273 24774286.477 -986294.776 10 0 56453 13500.00000 0 -5844075.016 24483011.251 -4162458.362 10 0 56453 14400.00000 0 -5646583.364 23796702.013 -7257797.248 10 0 56453 15300.00000 0 -5479067.326 22726082.108 -10212196.084 10 0 56453 16200.00000 0 -5393025.112 21294645.556 -12968265.556 10 0 56453 17100.00000 0 -5434851.313 19537790.105 -15472458.346 10 0 56453 18000.00000 0 -5643657.603 17501468.408 -17676110.600 10 0 56453 18900.00000 0 -6049408.742 15240413.208 -19536388.606 10 0 56453 19800.00000 0 -6671453.372 12816010.142 -21017122.316 10 0 56453 20700.00000 0 -7517512.408 10293906.533 -22089509.519 10 0 56453 21600.00000 0 -8583168.671 7741455.399 -22732677.169 10 0 56453 22500.00000 0 -9851880.304 5225100.645 -22934089.041 10 0 56453 23400.00000 0 -11295518.541 2807811.928 -22689791.843 10 0 56453 24300.00000 0 -12875408.378 546675.356 -22004494.955 10 0 56453 25200.00000 0 -14543829.600 -1509260.254 -20891482.050 10 0 56453 26100.00000 0 -16245916.129 -3320792.481 -19372356.034 10 0 56453 27000.00000 0 -17921874.849 -4859955.079 -17476621.877 10 0 56453 27900.00000 0 -19509431.426 -6110931.319 -15241114.975 10 0 56453 28800.00000 0 -20946400.756 -7070453.546 -12709285.852 10 0 56453 29700.00000 0 -22173274.226 -7747673.308 -9930354.793 10 0 56453 30600.00000 0 -23135714.922 -8163508.674 -6958352.738 10 0 56453 31500.00000 0 -23786855.552 -8349497.357 -3851067.268 10 0 56453 32400.00000 0 -24089301.984 -8346205.296 -668914.484 10 0 56453 33300.00000 0 -24016757.661 -8201259.157 2526240.770 10 0 56453 34200.00000 0 -23555200.085 -7967087.114 5672292.673 10 0 56453 35100.00000 0 -22703559.565 -7698464.683 8708106.031 10 0 56453 36000.00000 0 -21473871.480 -7449970.466 11574707.528 10 0 56453 36900.00000 0 -19890895.616 -7273460.343 14216432.916 10 0 56453 37800.00000 0 -17991218.560 -7215667.591 16582007.602 10 0 56453 38700.00000 0 -15821876.839 -7316030.875 18625539.686 10 0 56453 39600.00000 0 -13438558.488 -7604842.068 20307406.353 10 0 56453 40500.00000 0 -10903458.130 -8101792.218 21595017.013 10 0 56453 41400.00000 0 -8282874.751 -8814976.984 22463439.075 10 0 56453 42300.00000 0 -5644651.887 -9740403.490 22895874.986 10 0 56453 43200.00000 0 -3055565.998 -10862019.503 22883982.103 10 0 56453 44100.00000 0 -578770.631 -12152264.042 22428029.831 10 0 56453 45000.00000 0 1728598.441 -13573116.776 21536891.470 10 0 56453 45900.00000 0 3817558.936 -15077602.882 20227871.149 10 0 56453 46800.00000 0 5649071.223 -16611691.074 18526369.116 10 0 56453 47700.00000 0 7195407.801 -18116506.082 16465391.646 10 0 56453 48600.00000 0 8441047.439 -19530763.683 14084914.556 10 0 56453 49500.00000 0 9383057.952 -20793326.923 11431112.063 10 0 56453 50400.00000 0 10030952.694 -21845776.843 8555465.406 10 0 56453 51300.00000 0 10406027.848 -22634890.141 5513767.941 10 0 56453 52200.00000 0 10540209.234 -23114919.814 2365045.559 10 0 56453 53100.00000 0 10474457.818 -23249582.747 -829586.759 10 0 56453 54000.00000 0 10256801.794 -23013670.296 -4008110.205 10 0 56453 54900.00000 0 9940078.804 -22394213.565 -7108806.109 10 0 56453 55800.00000 0 9579484.116 -21391153.597 -10071454.959 10 0 56453 56700.00000 0 9230028.838 -20017487.504 -12838506.959 10 0 56453 57600.00000 0 8944016.064 -18298883.456 -15356201.156 10 0 56453 58500.00000 0 8768642.045 -16272779.792 -17575611.104 10 0 56453 59400.00000 0 8743824.241 -13987005.103 -19453596.698 10 0 56453 60300.00000 0 8900348.486 -11497976.114 -20953643.685 10 0 56453 61200.00000 0 9258414.005 -8868547.905 -22046574.563 10 0 56453 62100.00000 0 9826638.301 -6165605.390 -22711117.192 10 0 56453 63000.00000 0 10601564.563 -3457495.655 -22934320.208 10 0 56453 63900.00000 0 11567693.127 -811407.472 -22711807.169 10 0 56453 64800.00000 0 12698036.520 1709193.687 -22047864.486 10 0 56453 65700.00000 0 13955175.632 4046969.065 -20955361.225 10 0 56453 66600.00000 0 15292773.400 6152849.049 -19455502.070 10 0 56453 67500.00000 0 16657483.094 7987826.115 -17577417.845 10 0 56453 68400.00000 0 17991171.548 9524324.294 -15357601.136 10 0 56453 69300.00000 0 19233364.101 10747088.769 -12839197.639 10 0 56453 70200.00000 0 20323808.520 11653559.358 -10071166.732 10 0 56453 71100.00000 0 21205049.838 12253713.325 -7107327.461 10 0 56453 72000.00000 0 21824907.273 12569385.208 -4005308.692 10 0 56453 72900.00000 0 22138748.437 12633093.622 -825424.124 10 0 56453 73800.00000 0 22111464.388 12486425.735 2370505.465 10 0 56453 74700.00000 0 21719061.721 12178048.925 5520359.082 10 0 56453 75600.00000 0 20949804.099 11761434.847 8562927.420 10 0 56453 76500.00000 0 19804854.689 11292393.240 11439105.576 10 0 56453 77400.00000 0 18298392.164 10826520.670 14093042.847 10 0 56453 78300.00000 0 16457195.142 10416672.775 16473227.027 10 0 56453 79200.00000 0 14319712.277 10110567.271 18533482.121 10 0 56453 80100.00000 0 11934656.787 9948619.154 20233860.346 10 0 56453 81000.00000 0 9359183.924 9962099.406 21541411.608 10 0 56453 81900.00000 0 6656727.015 10171694.703 22430816.292 10 0 56453 82800.00000 0 3894581.789 10586528.523 22884869.778 10 0 56453 83700.00000 0 1141338.725 11203684.665 22894810.157 10 0 56453 84600.00000 0 -1535730.820 12008253.129 22460483.438 10 0 56453 85500.00000 0 -4073227.142 12973896.490 21590343.515 10 0 56454 0.00000 0 -6414008.659 14063913.240 20301287.192 10 0 56454 900.00000 0 -8509314.509 15232754.076 18618327.183 10 0 56454 1800.00000 0 -10320536.545 16427927.634 16574109.721 10 0 56454 2700.00000 0 -11820567.615 17592216.869 14208284.919 10 0 56454 3600.00000 0 -12994672.281 18666113.184 11566742.056 10 0 56454 4500.00000 0 -13840843.731 19590366.729 8700723.783 10 0 56454 5400.00000 0 -14369633.503 20308545.922 5665835.937 10 0 56454 6300.00000 0 -14603461.889 20769498.678 2520971.685 10 0 56454 7200.00000 0 -14575438.743 20929611.555 -672829.285 10 0 56454 8100.00000 0 -14327744.972 20754771.376 -3853564.507 10 0 56454 9000.00000 0 -13909643.466 20221946.041 -6959472.369 10 0 56454 9900.00000 0 -13375203.846 19320317.229 -9930231.965 10 0 56454 10800.00000 0 -12780837.500 18051916.312 -12708135.644 10 0 56454 11700.00000 0 -12182747.403 16431735.700 -15239211.243 10 0 56454 12600.00000 0 -11634400.729 14487309.811 -17474271.910 10 0 56454 13500.00000 0 -11184131.328 12257782.106 -19369873.065 10 0 56454 14400.00000 0 -10872973.544 9792496.077 -20889157.883 10 0 56454 15300.00000 0 -10732819.070 7149168.068 -22002574.893 10 0 56454 16200.00000 0 -10784974.885 4391717.177 -22688453.893 10 0 56454 17100.00000 0 -11039183.421 1587841.686 -22933429.094 10 0 56454 18000.00000 0 -11493146.651 -1193557.821 -22732701.286 10 0 56454 18900.00000 0 -12132574.599 -3885002.252 -22090133.947 10 0 56454 19800.00000 0 -12931756.786 -6422996.338 -21018181.204 10 0 56454 20700.00000 0 -13854633.045 -8750423.492 -19537648.796 10 0 56454 21600.00000 0 -14856319.121 -10818674.204 -17677292.322 10 0 56454 22500.00000 0 -15885023.208 -12589419.987 -15473260.137 10 0 56454 23400.00000 0 -16884272.906 -14035959.492 -12968391.400 10 0 56454 24300.00000 0 -17795358.790 -15144081.385 -10211382.628 10 0 56454 25200.00000 0 -18559891.406 -15912408.745 -7255838.840 10 0 56454 26100.00000 0 -19122363.459 -16352211.534 -4159227.901 10 0 56454 27000.00000 0 -19432608.536 -16486696.148 -981758.699 10 0 56454 27900.00000 0 -19448051.969 -16349803.207 2214794.558 10 0 56454 28800.00000 0 -19135658.132 -15984565.462 5368298.320 10 0 56454 29700.00000 0 -18473491.361 -15441096.381 8417471.861 10 0 56454 30600.00000 0 -17451824.028 -14774295.508 11303081.439 10 0 56454 31500.00000 0 -16073744.596 -14041368.450 13969092.643 10 0 56454 32400.00000 0 -14355239.576 -13299267.067 16363758.306 10 0 56454 33300.00000 0 -12324745.535 -12602158.375 18440620.846 10 0 56454 34200.00000 0 -10022189.565 -11999029.192 20159409.758 10 0 56454 35100.00000 0 -7497557.920 -11531527.436 21486817.397 10 0 56454 36000.00000 0 -4809052.044 -11232130.727 22397138.695 10 0 56454 36900.00000 0 -2020908.282 -11122718.923 22872763.156 10 0 56454 37800.00000 0 799028.784 -11213610.116 22904510.410 10 0 56454 38700.00000 0 3581879.500 -11503100.148 22491803.489 10 0 56454 39600.00000 0 6260342.924 -11977524.618 21642676.945 10 0 56454 40500.00000 0 8771243.927 -12611840.605 20373619.916 10 0 56454 41400.00000 0 11057909.149 -13370703.689 18709257.132 10 0 56454 42300.00000 0 13072274.251 -14209995.205 16681873.790 10 0 56454 43200.00000 0 14776636.121 -15078735.902 14330793.067 10 0 56454 44100.00000 0 16144978.201 -15921305.923 11701617.692 10 0 56454 45000.00000 0 17163814.645 -16679878.093 8845349.760 10 0 56454 45900.00000 0 17832519.001 -17296962.358 5817405.264 10 0 56454 46800.00000 0 18163124.463 -17717954.301 2676542.008 10 0 56454 47700.00000 0 18179604.739 -17893580.212 -516278.496 10 0 56454 48600.00000 0 17916666.383 -17782135.321 -3699073.175 10 0 56454 49500.00000 0 17418103.910 -17351420.188 -6810040.590 10 0 56454 50400.00000 0 16734787.407 -16580292.858 -9788761.534 10 0 56454 51300.00000 0 15922367.887 -15459770.374 -12577373.499 10 0 56454 52200.00000 0 15038797.448 -13993632.090 -15121695.957 10 0 56454 53100.00000 0 14141769.137 -12198498.209 -17372284.292 10 0 56454 54000.00000 0 13286184.683 -10103378.908 -19285391.833 10 0 56454 54900.00000 0 12521757.043 -7748711.568 -20823821.269 10 0 56454 55800.00000 0 11890848.905 -5184925.169 -21957648.917 10 0 56454 56700.00000 0 11426638.311 -2470590.519 -22664807.883 10 0 56454 57600.00000 0 11151688.690 329767.693 -22931518.922 10 0 56454 58500.00000 0 11076983.617 3148106.865 -22752560.637 10 0 56454 59400.00000 0 11201466.994 5915450.038 -22131373.743 10 0 56454 60300.00000 0 11512108.182 8564510.409 -21079997.217 10 0 56454 61200.00000 0 11984489.469 11032248.244 -19618837.294 10 0 56454 62100.00000 0 12583891.303 13262254.425 -17776273.434 10 0 56454 63000.00000 0 13266829.657 15206861.977 -15588108.504 10 0 56454 63900.00000 0 13982980.751 16828897.968 -13096873.522 10 0 56454 64800.00000 0 14677411.808 18103003.293 -10351000.200 10 0 56454 65700.00000 0 15293023.434 19016465.798 -7403877.245 10 0 56454 66600.00000 0 15773100.026 19569532.585 -4312808.938 10 0 56454 67500.00000 0 16063859.889 19775189.343 -1137896.517 10 0 56454 68400.00000 0 16116896.593 19658417.029 2059135.400 10 0 56454 69300.00000 0 15891407.650 19254958.284 5216143.807 10 0 56454 70200.00000 0 15356115.593 18609646.791 8271779.660 10 0 56454 71100.00000 0 14490799.597 17774371.098 11166683.381 10 0 56454 72000.00000 0 13287372.385 16805759.842 13844639.706 10 0 56454 72900.00000 0 11750456.419 15762686.827 16253669.164 10 0 56454 73800.00000 0 9897434.559 14703701.674 18347035.009 10 0 56454 74700.00000 0 7757972.546 13684494.628 20084146.186 10 0 56454 75600.00000 0 5373032.713 12755502.186 21431339.378 10 0 56454 76500.00000 0 2793419.508 11959753.934 22362525.634 10 0 56454 77400.00000 0 77916.838 11331050.588 22859689.791 10 0 56454 78300.00000 0 -2708906.060 10892549.002 22913233.820 10 0 56454 79200.00000 0 -5499129.934 10655812.797 22522158.129 10 0 56454 80100.00000 0 -8224061.857 10620367.715 21694077.794 10 0 56454 81000.00000 0 -10816846.750 10773779.739 20445073.673 10 0 56454 81900.00000 0 -13215006.918 11092252.238 18799381.271 10 0 56454 82800.00000 0 -15362805.143 11541716.808 16788923.142 10 0 56454 83700.00000 0 -17213334.308 12079371.911 14452693.439 10 0 56454 84600.00000 0 -18730247.580 12655604.652 11836005.925 10 0 56454 85500.00000 0 -19889057.911 13216214.960 8989619.473 10 0 56455 0.00000 0 -20677953.428 13704848.616 5968757.488 10 0 56455 900.00000 0 -21098095.136 14065536.432 2832039.382 10 0 56455 1800.00000 0 -21163385.463 14245232.932 -359654.359 10 0 56455 2700.00000 0 -20899716.974 14196246.005 -3544362.940 10 0 56455 3600.00000 0 -20343734.232 13878455.678 -6660247.935 10 0 56455 4500.00000 0 -19541160.475 13261226.725 -9646794.594 10 0 56455 5400.00000 0 -18544760.214 12324933.882 -12445988.184 10 0 56455 6300.00000 0 -17412023.686 11062034.076 -15003442.267 10 0 56455 7200.00000 0 -16202670.925 9477639.334 -17269456.680 10 0 56455 8100.00000 0 -14976080.683 7589564.824 -19199984.584 10 0 56455 9000.00000 0 -13788752.498 5427848.555 -20757489.775 10 0 56455 9900.00000 0 -12691908.723 3033761.437 -21911677.571 10 0 56455 10800.00000 0 -11729337.291 458347.646 -22640085.224 10 0 56455 11700.00000 0 -10935565.780 -2239445.152 -22928520.492 10 0 56455 12600.00000 0 -10334443.379 -4994968.893 -22771339.853 10 0 56455 13500.00000 0 -9938190.163 -7740320.895 -22171560.960 10 0 56455 14400.00000 0 -9746953.449 -10406931.465 -21140806.985 10 0 56455 15300.00000 0 -9748889.675 -12928186.315 -19699083.653 10 0 56455 16200.00000 0 -9920768.192 -15241975.282 -17874392.982 10 0 56455 17100.00000 0 -10229071.272 -17293061.728 -15702190.783 10 0 56455 18000.00000 0 -10631543.719 -19035174.134 -13224698.155 10 0 56455 18900.00000 0 -11079126.380 -20432733.033 -10490080.080 10 0 56455 19800.00000 0 -11518191.425 -21462141.522 -7551506.924 10 0 56455 20700.00000 0 -11892984.419 -22112585.757 -4466117.292 10 0 56455 21600.00000 0 -12148169.249 -22386312.561 -1293902.635 10 0 56455 22500.00000 0 -12231367.476 -22298373.250 1903464.195 10 0 56455 23400.00000 0 -12095583.910 -21875845.340 5063832.970 10 0 56455 24300.00000 0 -11701414.964 -21156565.927 8125788.620 10 0 56455 25200.00000 0 -11018945.638 -20187431.095 11029848.086 10 0 56455 26100.00000 0 -10029254.259 -19022333.969 13719617.623 10 0 56455 27000.00000 0 -8725460.840 -17719829.116 16142887.816 10 0 56455 27900.00000 0 -7113274.176 -16340622.214 18252645.015 10 0 56455 28800.00000 0 -5211014.153 -14944990.969 20007979.727 10 0 56455 29700.00000 0 -3049107.586 -13590245.719 21374874.846 10 0 56455 30600.00000 0 -669078.031 -12328336.048 22326859.154 10 0 56455 31500.00000 0 1877928.997 -11203703.301 22845514.119 10 0 56455 32400.00000 0 4533024.802 -10251468.192 22920825.032 10 0 56455 33300.00000 0 7231783.060 -9496028.520 22551370.327 10 0 56455 34200.00000 0 9906681.424 -8950124.724 21744345.924 10 0 56455 35100.00000 0 12489678.893 -8614411.485 20515424.412 10 0 56455 36000.00000 0 14914823.001 -8477552.419 18888451.768 10 0 56455 36900.00000 0 17120779.529 -8516833.259 16894987.270 10 0 56455 37800.00000 0 19053180.620 -8699267.247 14573695.076 10 0 56455 38700.00000 0 20666694.483 -8983145.957 11969598.641 10 0 56455 39600.00000 0 21926731.136 -9319970.126 9133211.877 10 0 56455 40500.00000 0 22810713.676 -9656679.064 6119563.323 10 0 56455 41400.00000 0 23308862.432 -9938084.478 2987131.739 10 0 56455 42300.00000 0 23424459.500 -10109405.902 -203286.385 10 0 56455 43200.00000 0 23173582.920 -10118800.302 -3389755.631 10 0 56455 44100.00000 0 22584321.848 -9919778.551 -6510403.805 10 0 56455 45000.00000 0 21695505.873 -9473406.028 -9504623.855 10 0 56455 45900.00000 0 20555002.075 -8750193.548 -12314251.983 10 0 56455 46800.00000 0 19217651.527 -7731597.739 -14884698.826 10 0 56455 47700.00000 0 17742932.148 -6411066.405 -17166011.436 10 0 56455 48600.00000 0 16192446.182 -4794583.491 -19113845.301 10 0 56455 49500.00000 0 14627337.885 -2900689.220 -20690327.507 10 0 56455 50400.00000 0 13105749.826 -759973.085 -21864794.235 10 0 56455 51300.00000 0 11680424.420 1585940.626 -22614388.395 10 0 56455 52200.00000 0 10396551.076 4085873.875 -22924505.872 10 0 56455 53100.00000 0 9289948.998 6680981.943 -22789081.753 10 0 56455 54000.00000 0 8385661.472 9306969.091 -22210710.958 10 0 56455 54900.00000 0 7697020.163 11896541.565 -21200600.767 10 0 56455 55800.00000 0 7225218.275 14381996.513 -19778355.925 10 0 56455 56700.00000 0 6959409.971 16697839.670 -17971600.130 10 0 56455 57600.00000 0 6877331.353 18783323.169 -15815440.884 10 0 56455 58500.00000 0 6946416.266 20584797.887 -13351787.737 10 0 56455 59400.00000 0 7125359.306 22057782.363 -10628536.940 10 0 56455 60300.00000 0 7366059.335 23168662.000 -7698638.181 10 0 56455 61200.00000 0 7615860.693 23895947.581 -4619061.732 10 0 56455 62100.00000 0 7819996.486 24231040.738 -1449686.354 10 0 56455 63000.00000 0 7924129.701 24178474.700 1747869.957 10 0 56455 63900.00000 0 7876883.719 23755620.811 4911452.927 10 0 56455 64800.00000 0 7632254.202 22991873.933 7979584.635 10 0 56455 65700.00000 0 7151799.467 21927351.839 10892661.622 10 0 56455 66600.00000 0 6406515.963 20611164.174 13594114.593 10 0 56455 67500.00000 0 5378318.893 19099324.561 16031506.913 10 0 56455 68400.00000 0 4061064.886 17452394.271 18157550.515 10 0 56455 69300.00000 0 2461073.019 15732956.820 19931019.683 10 0 56455 70200.00000 0 597121.658 14003029.568 21317545.449 10 0 56455 71100.00000 0 -1500079.491 12321520.613 22290275.923 10 0 56455 72000.00000 0 -3788920.744 10741836.961 22830390.452 10 0 56455 72900.00000 0 -6218385.039 9309743.270 22927458.482 10 0 56455 73800.00000 0 -8729940.515 8061559.639 22579636.856 10 0 56455 74700.00000 0 -11259755.246 7022772.712 21793702.236 10 0 56455 75600.00000 0 -13741143.101 6207116.922 20584918.307 10 0 56455 76500.00000 0 -16107140.145 5616163.142 18976740.357 10 0 56455 77400.00000 0 -18293105.382 5239430.964 17000362.715 10 0 56455 78300.00000 0 -20239238.652 5055018.980 14694117.400 10 0 56455 79200.00000 0 -21892911.649 5030725.908 12102735.017 10 0 56455 80100.00000 0 -23210715.492 5125614.955 9276481.684 10 0 56455 81000.00000 0 -24160139.905 5291955.133 6270188.101 10 0 56455 81900.00000 0 -24720814.157 5477457.431 3142189.113 10 0 56455 82800.00000 0 -24885257.957 5627711.190 -46805.900 10 0 56455 83700.00000 0 -24659110.941 5688717.436 -3234890.027 10 0 56455 84600.00000 0 -24060831.133 5609411.670 -6360160.374 10 0 56455 85500.00000 0 -23120874.963 5344068.908 -9361920.540 10 0 56456 0.00000 0 -21880393.280 4854488.630 -12181860.412 10 0 56456 900.00000 0 -20389497.908 4111865.979 -14765190.418 10 0 56456 1800.00000 0 -18705171.808 3098270.376 -17061707.110 10 0 56456 2700.00000 0 -16888910.157 1807665.942 -19026770.280 10 0 56456 3600.00000 0 -15004191.346 246431.434 -20622171.878 10 0 56456 4500.00000 0 -13113883.821 -1566644.967 -21816880.044 10 0 56456 5400.00000 0 -11277697.123 -3600896.752 -22587643.931 10 0 56456 6300.00000 0 -9549783.553 -5814815.548 -22919447.636 10 0 56456 7200.00000 0 -7976590.519 -8157550.935 -22805804.457 10 0 56456 8100.00000 0 -6595052.937 -10570812.349 -22248885.729 10 0 56456 9000.00000 0 -5431200.798 -12991094.848 -21259481.610 10 0 56456 9900.00000 0 -4499239.635 -15352136.777 -19856794.286 10 0 56456 10800.00000 0 -3801141.705 -17587507.545 -18068067.306 10 0 56456 11700.00000 0 -3326764.298 -19633218.048 -15928057.828 10 0 56456 12600.00000 0 -3054489.392 -21430244.960 -13478361.696 10 0 56456 13500.00000 0 -2952356.884 -22926863.539 -10766604.216 10 0 56456 14400.00000 0 -2979642.674 -24080691.425 -7845512.178 10 0 56456 15300.00000 0 -3088814.069 -24860357.743 -4771885.344 10 0 56456 16200.00000 0 -3227778.872 -25246727.615 -1605487.669 10 0 56456 17100.00000 0 -3342331.962 -25233630.846 1592119.760 10 0 56456 18000.00000 0 -3378694.843 -24828064.421 4758780.624 10 0 56456 18900.00000 0 -3286039.658 -24049860.787 7832956.119 10 0 56456 19800.00000 0 -3018889.884 -22930836.412 10754924.339 10 0 56456 20700.00000 0 -2539295.369 -21513457.079 13467942.362 10 0 56456 21600.00000 0 -1818689.005 -19849076.641 15919348.197 10 0 56456 22500.00000 0 -839346.007 -17995823.738 18061581.147 10 0 56456 23400.00000 0 404616.260 -16016225.526 19853100.908 10 0 56456 24300.00000 0 1906740.592 -13974668.139 21259188.108 10 0 56456 25200.00000 0 3648255.903 -11934799.976 22252611.417 10 0 56456 26100.00000 0 5598626.379 -9956985.969 22814149.032 10 0 56456 27000.00000 0 7716601.662 -8095918.384 22932955.260 10 0 56456 27900.00000 0 9951725.082 -6398482.826 22606765.800 10 0 56456 28800.00000 0 12246237.956 -4901967.353 21841938.233 10 0 56456 29700.00000 0 14537301.646 -3632688.080 20653327.275 10 0 56456 30600.00000 0 16759445.889 -2605087.297 19063997.207 10 0 56456 31500.00000 0 18847142.389 -1821340.548 17104776.835 10 0 56456 32400.00000 0 20737397.389 -1271487.912 14813665.196 10 0 56456 33300.00000 0 22372255.949 -934082.957 12235098.908 10 0 56456 34200.00000 0 23701113.946 -777331.357 9419094.822 10 0 56456 35100.00000 0 24682741.682 -760670.590 6420283.981 10 0 56456 36000.00000 0 25286934.639 -836723.674 3296855.135 10 0 56456 36900.00000 0 25495722.283 -953544.142 109428.066 10 0 56456 37800.00000 0 25304084.161 -1057057.015 -3080121.582 10 0 56456 38700.00000 0 24720143.003 -1093592.203 -6209863.142 10 0 56456 39600.00000 0 23764826.467 -1012402.707 -9219013.868 10 0 56456 40500.00000 0 22471011.425 -768060.515 -12049120.403 10 0 56456 41400.00000 0 20882186.350 -322628.136 -14645195.595 10 0 56456 42300.00000 0 19050687.707 352486.867 -16956788.238 10 0 56456 43200.00000 0 17035583.970 1275073.680 -18938964.870 10 0 56456 44100.00000 0 14900295.651 2451119.069 -20553184.470 10 0 56456 45000.00000 0 12710050.725 3874310.593 -21768049.043 10 0 56456 45900.00000 0 10529281.556 5526064.486 -22559915.612 10 0 56456 46800.00000 0 8419071.729 7376078.501 -22913357.797 10 0 56456 47700.00000 0 6434759.090 9383387.941 -22821468.079 10 0 56456 48600.00000 0 4623794.547 11497882.004 -22285994.809 10 0 56456 49500.00000 0 3023945.467 13662218.289 -21317311.212 10 0 56456 50400.00000 0 1661918.113 15814056.369 -19934216.690 10 0 56456 51300.00000 0 552455.939 17888517.915 -18163573.983 10 0 56456 52200.00000 0 -302049.393 19820771.112 -16039788.818 10 0 56456 53100.00000 0 -911418.836 21548631.492 -13604141.837 10 0 56456 54000.00000 0 -1297025.544 23015070.514 -10903985.508 10 0 56456 54900.00000 0 -1490642.092 24170526.699 -7991821.474 10 0 56456 55800.00000 0 -1532845.016 24974922.246 -4924276.436 10 0 56456 56700.00000 0 -1471045.241 25399300.327 -1760996.717 10 0 56456 57600.00000 0 -1357228.774 25427014.157 1436516.506 10 0 56456 58500.00000 0 -1245504.401 25054417.857 4606107.986 10 0 56456 59400.00000 0 -1189563.257 24291030.157 7686181.178 10 0 56456 60300.00000 0 -1240158.820 23159164.351 10616898.822 10 0 56456 61200.00000 0 -1442714.803 21693040.402 13341347.352 10 0 56456 62100.00000 0 -1835162.859 19937416.930 15806642.246 10 0 56456 63000.00000 0 -2446102.080 17945800.857 17964952.790 10 0 56456 63900.00000 0 -3293358.387 15778310.082 19774426.480 10 0 56456 64800.00000 0 -4383005.007 13499278.728 21199995.655 10 0 56456 65700.00000 0 -5708885.649 11174704.938 22214051.357 10 0 56456 66600.00000 0 -7252660.900 8869647.385 22796972.105 10 0 56456 67500.00000 0 -8984376.454 6645678.369 22937498.147 10 0 56456 68400.00000 0 -10863530.160 4558498.629 22632944.662 10 0 56456 69300.00000 0 -12840594.028 2655812.098 21889250.283 10 0 56456 70200.00000 0 -14858928.594 975547.774 20720860.355 10 0 56456 71100.00000 0 -16857010.722 -455498.684 19150447.195 10 0 56456 72000.00000 0 -18770882.796 -1622548.281 17208472.576 10 0 56456 72900.00000 0 -20536722.001 -2523211.459 14932600.526 10 0 56456 73800.00000 0 -22093423.190 -3167335.962 12366971.186 10 0 56456 74700.00000 0 -23385087.926 -3576337.152 9561349.274 10 0 56456 75600.00000 0 -24363315.999 -3782039.829 6570163.030 10 0 56456 76500.00000 0 -24989203.616 -3825080.995 3451451.779 10 0 56456 77400.00000 0 -25234964.419 -3752941.397 265742.277 10 0 56456 78300.00000 0 -25085105.113 -3617689.450 -2925124.548 10 0 56456 79200.00000 0 -24537105.932 -3473533.288 -6059193.664 10 0 56456 80100.00000 0 -23601576.884 -3374284.890 -9075599.291 10 0 56456 81000.00000 0 -22301882.635 -3370844.047 -11915747.941 10 0 56456 81900.00000 0 -20673251.218 -3508809.198 -14524457.933 10 0 56456 82800.00000 0 -18761403.369 -3826316.795 -16851032.920 10 0 56456 83700.00000 0 -16620759.449 -4352201.334 -18850248.443 10 0 56456 84600.00000 0 -14312298.454 -5104554.627 -20483232.306 10 0 56456 85500.00000 0 -11901158.270 -6089746.112 -21718221.607 99